Tracking 19242 objects as of 18-Sep-2018
HD Live streaming from Space Station
objects crossing your sky now

FENGYUN 1C DEB

Track FENGYUN 1C DEB now!
10-day predictions


NORAD ID: 31327
Int'l Code: 1999-025BQF
Perigee: 554.1 km
Apogee: 803.5 km
Inclination: 99.0 °
Period: 98.2 minutes
Semi major axis: 7049 km
RCS: 0.0089 m2 (small)
Launch date: May 10, 1999
Source: People's Republic of China (PRC)
Launch site: Taiyaun Space Center, China (TSC)

Note: This is SATELLITE DEBRIS
aabbcc
Your satellite tracking list
Your tracking list is empty




NASA's NSSDC Master Catalog

Two Line Element Set (TLE):
1 31327U 99025BQF 18260.28491075 +.00000389 +00000-0 +65767-4 0  9999
2 31327 099.0119 293.4952 0176911 353.0458 006.8292 14.66688816611205
Source of the keplerian elements: AFSPC